sat.trackr.live / text

‹ back to catalog

STARLINK-35672

NORAD 66394 · 2025-257Q

PAYLOAD ACTIVE UNKNOWN

§ Identity

Operator
Country
US
Launch date
2025-11-09
Launch site
AFETR
Launch vehicle
Mass (kg)
RCS (m²)

Purposes: comms

External: N2YO · Heavens-Above · Gunter

§ Orbital elements

Epoch: 2026-09-20T12:25:48.936864Z

Period
93.85 min
Inclination
53.1581°
Eccentricity
0.0001694
Mean motion
15.34398568 rev/d
Perigee alt
461.5 km
Apogee alt
463.9 km
Semi-major
6,840.8 km
B*
2.9043e-4
RAAN
27.7351°
Arg perigee
95.1451°
Mean anomaly
264.9745°
Rev number
4,962

§ Raw data

STARLINK-356721 66394U 25257Q   26263.51792751  .00009448  00000+0  29043-3 0  99902 66394  53.1581  27.7351 0001694  95.1451 264.9745 15.34398568 49623

JSON: /api/v1/satellites/66394 · /tle

For live sub-satellite position, see the globe view (requires WebGL).

§ Visibility from observer

Set your observer location to see the next 7 days of passes ≥ 10°. The values pass through the URL so the page stays shareable.

No JS? Fill the form by hand. The geolocation button needs JavaScript.